Home > Time Zones > World Clock > Weather > Norway > Oslo > Past weeks

Flag for Norway Weather past 2 weeks in Oslo, Norway

Now
47 °F

Cool.


Feels Like: 45 °F
Forecast: 44 / 52 °F
Wind: 3 mph from South

Location: Oslo-Blindern

Current Time: May 30, 2015 at 1:20:43 AM

Latest Report: May 30, 2015 at 12:00 AM


Visibility: N/A

Pressure: 29.63 "Hg

Humidity: 82%

Dew point: 41 °F

Location of OsloLocation

Historic Weather in Oslo — Graph

°F

Oslo temperature yesterday

Maximum temperature yesterday: 58 °F (at 4:00 PM)
Minimum temperature yesterday: 42 °F (at 4:00 AM)
Average temperature yesterday: 51 °F

Past Weeks' High & Low Weather Summary

 TemperatureHumidityPressure
High64 °F (May 27, 6:00 PM)98% (May 17, 12:00 AM)30.03 "Hg (May 17, 12:00 AM)
Low35 °F (May 15, 4:00 AM)25% (May 15, 4:00 PM)29.38 "Hg (May 29, 12:00 AM)
Average50 °F68%29.76 "Hg
* Reported Midnight between May 14 and May 15 — Midnight between May 29 and May 30, Oslo, Weather by CustomWeather, © 2015

Note: Actual official high and low records may vary slightly from our data, if they occured in-between our weather recording intervals... More about our weather records

Advertising

Oslo weather history for previous 24 hours

 ConditionsComfort  
Time TempWeatherWind HumidityBarometerVisibility
12:00 AM
Sat, May 30
47 °FCool.3 mph82%29.63 "HgN/A
10:00 PM
Fri, May 29
49 °FCool.6 mph76%29.62 "HgN/A
9:00 PM50 °FCool.6 mph69%29.60 "HgN/A
8:00 PM52 °FScattered clouds.7 mph62%29.59 "Hg37 mi
7:00 PM54 °FCool.6 mph60%29.58 "HgN/A
6:00 PM54 °FCool.5 mph60%29.57 "HgN/A
5:00 PM57 °FPartly sunny.6 mph46%29.56 "Hg37 mi
4:00 PM58 °FRefreshingly cool.8 mph51%29.54 "HgN/A
3:00 PM57 °FRefreshingly cool.7 mph52%29.54 "HgN/A
2:00 PM57 °FScattered clouds.7 mph46%29.54 "Hg43 mi
1:00 PM58 °FRefreshingly cool.8 mph42%29.53 "HgN/A
12:00 PM57 °FRefreshingly cool.7 mph45%29.50 "HgN/A
11:00 AM56 °FScattered clouds.7 mph48%29.50 "Hg47 mi
10:00 AM54 °FCool.6 mph53%29.50 "HgN/A
9:00 AM52 °FCool.5 mph59%29.50 "HgN/A
8:00 AM47 °FScattered clouds.3 mph74%29.50 "Hg47 mi
7:00 AM46 °FCool.5 mph81%29.47 "HgN/A
6:00 AM43 °FQuite cool.5 mph96%29.47 "HgN/A
5:00 AM42 °FRain. Partly sunny.2 mph96%29.44 "Hg16 mi
4:00 AM42 °FQuite cool.5 mph95%29.44 "HgN/A
3:00 AM43 °FQuite cool.5 mph85%29.44 "HgN/A
2:00 AM45 °FPassing clouds.7 mph81%29.41 "Hg19 mi
Weather by CustomWeather, © 2015

See weather overviewHow to use our weather pages